Regional Weather Roundup
Issued by NWS Austin/San Antonio, TX

Home | Current Version | Previous Version | Text Only | Print | Product List | Glossary On
Versions: 1 2 3 4 5 6 7 8 9 10 11 12 13 14 15 16 17 18 19 20 21 22 23 24 25 26 27 28 29 30 31 32 33 34 35 36 37 38 39 40 41 42 43 44 45 46 47 48 49 50
000
ASUS44 KEWX 131511
RWREWX
SOUTH TEXAS REGIONAL WEATHER ROUNDUP
NATIONAL WEATHER SERVICE AUSTIN/SAN ANTONIO TX
1000 AM CDT SUN OCT 13 2019

NOTE: "FAIR" INDICATED FEW OR NO CLOUDS BELOW 12,000 FEET WITH NO
SIGNIFICANT WEATHER AND/OR OBSTRUCTIONS TO VISIBILITY.

* - THESE STATIONS ARE NOT NWS OR FAA STATIONS...AND ARE NOT SUBJECT
    TO NWS AND FAA QUALITY CONTROL.

TXZ171-172-183>190-131600-
TEXAS HILL COUNTRY AND EDWARDS PLATEAU

CITY           SKY/WX    TMP DP  RH WIND       PRES   REMARKS
JUNCTION       SUNNY     61  40  45 SW7       30.07R
*LLANO         MOSUNNY   63  39  42 CALM      30.09S
BURNET         PTSUNNY   58  43  57 S3        30.08R
*HORSESHOE BAY MOSUNNY   64  46  52 CALM      30.06R
*KERRVILLE     SUNNY     61  43  51 CALM      30.07R
*FREDERICKSBRG MOSUNNY   62  38  41 S5        30.07R
*ROCKSPRINGS   SUNNY     61  32  33 S13       30.12R
*BOERNE        MOSUNNY   64  36  34 CALM      30.07S
*CASTROVILLE   MOSUNNY   68  33  27 CALM      30.08R
HONDO          SUNNY     68  32  26 CALM      30.06R
*UVALDE        SUNNY     65  33  30 CALM      30.07R
DEL RIO        MOSUNNY   63  36  36 SE6       30.04R
LAUGHLIN AFB   CLOUDY    62  38  41 E5        30.05R
SPOFFORD       MOSUNNY   65  32  30 SE6       30.00R
*EAGLE PASS    SUNNY     64  34  32 SE3       30.06R
CARRIZO SPRGS  PTSUNNY   68  36  30 SE5       30.05R
*FAITH RANCH   CLOUDY    70  36  28 S6        30.05R
$$

TXZ173-191>194-202-209-217>225-228-131600-
CENTRAL AND SOUTH CENTRAL TEXAS

CITY           SKY/WX    TMP DP  RH WIND       PRES   REMARKS
GEORGETOWN     PTSUNNY   60  43  53 SE5       30.08S
AUSTIN/BERGSTM CLOUDY    63  42  46 SE5       30.07R
AUSTIN/MABRY   CLOUDY    63  42  46 CALM      30.07S
*AUSTIN/EXEC   PTSUNNY   61  45  55 E6        30.08S
*LAGO VISTA    CLOUDY    61  45  56 S3        30.06S
SAN MARCOS     CLOUDY    65  39  38 E3        30.07S
NEW BRAUNFELS  MOSUNNY   65  39  38 E3        30.05R
RANDOLPH AFB   PTSUNNY   67  38  34 NE3       30.06S
SEGUIN         CLOUDY    64  40  41 E5        30.09F
KELLY FIELD    CLOUDY    66  38  35 CALM      30.04R
SAN ANTONIO    PTSUNNY   65  36  34 CALM      30.07R
STINSON FIELD  PTSUNNY   63  38  39 E3        30.04S
PLEASANTON     CLOUDY    65  38  36 CALM      30.08R
*LA GRANGE     CLOUDY    64  48  57 CALM      30.05S
*GIDDINGS      PTSUNNY   64  48  56 CALM      30.08R
*GONZALES      CLOUDY    64  48  56 E3        30.07R
$$

TXZ163>164-176>182-195>201-210>213-226-227-235-131600-
SOUTHEAST TEXAS

CITY           SKY/WX    TMP DP  RH WIND       PRES   REMARKS
COLLEGE STN    PTSUNNY   62  50  64 VRB3      30.08R
*BRYAN         CLOUDY    60  52  75 E3        30.10R
*CALDWELL      CLOUDY    60  48  64 E5        30.08S
*CROCKETT      MOSUNNY   59  48  67 NE6       30.12R
*BRENHAM       PTSUNNY   63  51  66 CALM      30.08S
HUNTSVILLE     SUNNY     60  50  69 CALM      30.09R
CONROE         MOSUNNY   61  51  70 CALM      30.08S
HOUSTON BUSH   CLOUDY    63  50  62 NE5       30.07R
HOUSTON HOBBY  CLOUDY    69  52  54 N5        30.06R
*HOUSTON SW AP CLOUDY    66  53  64 N6        30.06F
PEARLAND       CLOUDY    68  49  50 NE5       30.07R
HOUSTON HOOKS  PTSUNNY   63  48  58 VRB3      30.07S
ELLINGTON FLD  PTSUNNY   68  52  56 NE3       30.04S
SUGAR LAND     CLOUDY    67  53  61 NE5       30.06S
*HOUSTON EXEC  FAIR      66  52  59 E6        30.07F
*CLEVELAND MUN   N/A     59  55  84 CALM      30.09S
*WHARTON       CLOUDY    65  51  59 N5        30.07R
*COLUMBUS      FAIR      65  46  50 CALM      30.08R
*EAGLE LAKE    MOSUNNY   69  54  58 NE6       30.07
$$

TXZ214>216-236>238-131600-
THE UPPER TEXAS COAST

CITY           SKY/WX    TMP DP  RH WIND       PRES   REMARKS
*ORANGE        FAIR      68  58  70 N3        30.08S
PORT ARTHUR    FAIR      70  52  52 NE6       30.05R
GALVESTON      PTSUNNY   73  56  54 N9        30.05S
ANGLETON       CLOUDY    67  56  67 NE6       30.06R
*BAY CITY      CLOUDY    68  58  70 NE5       30.05S
PALACIOS       CLOUDY    70  52  52 NE9       30.04S
$$

TXZ229>234-239>247-131600-
TEXAS COASTAL BEND AND RIO GRANDE PLAINS

CITY           SKY/WX    TMP DP  RH WIND       PRES   REMARKS
VICTORIA       CLOUDY    67  53  61 N5        30.05R
*BEEVILLE      NOT AVBL
ROCKPORT       CLOUDY    72  53  51 NE9       30.02S
*PORT ARANSAS  CLOUDY    70  58  66 N15       30.03S
*PORT LAVACA   CLOUDY    69  54  59 NE8       30.04R
*INGLESIDE     CLOUDY    70  56  61 NE12      30.02S
CORPUS CHRISTI CLOUDY    71  50  47 N10       30.02R
CORPUS NAS     CLOUDY    71  59  65 NE12      30.01R
*ROBSTOWN      CLOUDY    66  46  48 N6        30.04R
ALICE          CLOUDY    70  44  39 N8        30.04R
KINGSVILLE NAS CLOUDY    70  47  43 N9        30.02R
COTULLA        CLOUDY    70  34  26 E5        30.06R
LAREDO         CLOUDY    72  45  37 E6        30.04S
$$

TXZ248>255-131600-
DEEP SOUTH TEXAS

CITY           SKY/WX    TMP DP  RH WIND       PRES   REMARKS
BROWNSVILLE    CLOUDY    71  54  54 NW10      29.97S
PORT ISABEL    PTSUNNY   73  59  61 N13       29.97S
HARLINGEN      CLOUDY    71  48  43 NW12      29.99R
*HEBBRONVILLE  CLOUDY    68  47  46 CALM      30.05R
MCALLEN        CLOUDY    70  60  70 NW8       30.02R
*WESLACO       CLOUDY    70  52  52 N9        30.00
FALFURRIAS     CLOUDY    71  45  38 N7        30.02S
EDINBURG       CLOUDY    70  51  52 N6        30.02R
*ZAPATA        CLOUDY    70  47  43 CALM      30.05R
$$

TXZ213>215-236>238-242>244-246-247-251-254-255-131600-
CMAN STATIONS

STATION/POSITION TIME  TEMP    WIND        PRES    WAVE
                       AIR SEA DIR/SP/G            HT/PER
                 (UTC) (F)     (DEG/KT/KT) (MB)    (FT/S)
SABINE PASS      1424   67 77   30/  8/  9 1019.2
SEA RIM ST PARK  1500   68      30/  7/ 10 1017.9
NORTH JETTY/GLS  1424   66 73   50/  8/  9 1016.2
EAGLE POINT      1424   65 70   30/  6/  8 1017.0
MORGANS POINT    1430           40/  4/  5 1017.7
PORT O`CONNOR    1424   67 68   30/ 11/ 13 1016.7
PORT ARANSAS     1500   69 78  360/ 13/ 15 1016.4
MALAQUITE BEACH  1424      79  330/ 14/ 17 1015.5
BAFFIN BAY       1430          350/ 12/ 14 1015.9
PORT ISABEL      1424   69 75  330/ 12/ 15 1014.7
$$



USA.gov is the U.S. government's official web portal to all federal, state and local government web resources and services.